ALK143 VCBI-VABB

Flight info

Callsign ALK143
Flight time 2h 15m
Altitude 38000
Route ATETA1D ATETA T4 TTR W42 BIA W56 AGELA MOLGO2A
Aircraft A20N/M-SDE2E3FGHIRWXY/LB1

Departure

Time 2026-04-30 12:52
Airport Bandaranaike International Colombo Airport (VCBI)

Arrival

Time 2026-04-30 15:07
Airport Chhatrapati Shivaji Maharaj International Airport (VABB)
Time Latitude Longitude Altitude Speed Heading
2026-04-30 12:39 7.17615 79.88567 30 ft 0 kts 217°
2026-04-30 12:41 7.17615 79.88568 30 ft 2 kts 217°
2026-04-30 12:42 7.17630 79.88579 30 ft 3 kts 217°
2026-04-30 12:42 7.17645 79.88590 30 ft 3 kts 217°
2026-04-30 12:42 7.17659 79.88601 30 ft 3 kts 217°
2026-04-30 12:42 7.17678 79.88616 30 ft 2 kts 218°
2026-04-30 12:43 7.17685 79.88622 30 ft 3 kts 237°
2026-04-30 12:43 7.17691 79.88639 30 ft 3 kts 272°
2026-04-30 12:43 7.17689 79.88657 30 ft 3 kts 287°
2026-04-30 12:43 7.17682 79.88670 30 ft 2 kts 317°
2026-04-30 12:44 7.17678 79.88674 30 ft 0 kts 305°
2026-04-30 12:46 7.17678 79.88673 30 ft 1 kts 306°
2026-04-30 12:46 7.17689 79.88659 30 ft 3 kts 306°
2026-04-30 12:46 7.17700 79.88643 30 ft 3 kts 307°
2026-04-30 12:46 7.17728 79.88608 30 ft 9 kts 308°
2026-04-30 12:47 7.17769 79.88554 30 ft 10 kts 307°
2026-04-30 12:47 7.17811 79.88498 30 ft 10 kts 307°
2026-04-30 12:47 7.17856 79.88444 30 ft 10 kts 326°
2026-04-30 12:47 7.17921 79.88454 31 ft 12 kts 34°
2026-04-30 12:48 7.17997 79.88511 30 ft 16 kts 38°
2026-04-30 12:48 7.18090 79.88581 30 ft 17 kts 35°
2026-04-30 12:48 7.18180 79.88651 30 ft 16 kts 36°
2026-04-30 12:48 7.18270 79.88718 30 ft 16 kts 36°
2026-04-30 12:49 7.18357 79.88785 30 ft 16 kts 38°
2026-04-30 12:49 7.18381 79.88803 30 ft 0 kts 37°
2026-04-30 12:49 7.18402 79.88819 30 ft 10 kts 37°
2026-04-30 12:50 7.18461 79.88864 31 ft 11 kts 40°
2026-04-30 12:50 7.18518 79.88908 31 ft 10 kts 36°
2026-04-30 12:50 7.18576 79.88948 31 ft 9 kts 18°
2026-04-30 12:50 7.18637 79.88917 31 ft 11 kts 309°
2026-04-30 12:51 7.18681 79.88856 31 ft 10 kts 300°
2026-04-30 12:51 7.18646 79.88780 32 ft 29 kts 220°
2026-04-30 12:51 7.18297 79.88514 30 ft 96 kts 217°
2026-04-30 12:51 7.17612 79.87990 45 ft 147 kts 217°
2026-04-30 12:52 7.16772 79.87349 477 ft 156 kts 218°
2026-04-30 12:52 7.15952 79.86610 997 ft 158 kts 233°
2026-04-30 12:52 7.15756 79.85547 1629 ft 163 kts 279°
2026-04-30 12:52 7.16164 79.84322 1929 ft 206 kts 287°
2026-04-30 12:53 7.16658 79.82851 2338 ft 236 kts 284°
2026-04-30 12:53 7.17120 79.81211 2992 ft 250 kts 282°
2026-04-30 12:53 7.17699 79.79517 3697 ft 263 kts 292°
2026-04-30 12:53 7.18710 79.77939 4456 ft 274 kts 311°
2026-04-30 12:54 7.20295 79.76858 5259 ft 281 kts 336°
2026-04-30 12:54 7.22189 79.76308 6135 ft 283 kts 349°
2026-04-30 12:54 7.24142 79.76067 6977 ft 284 kts 356°
2026-04-30 12:54 7.26095 79.75983 7753 ft 287 kts 359°
2026-04-30 12:55 7.28135 79.75957 8611 ft 290 kts
2026-04-30 12:55 7.30159 79.75934 9445 ft 292 kts 360°
2026-04-30 12:55 7.32203 79.75888 10200 ft 296 kts 359°
2026-04-30 12:55 7.34326 79.75817 10598 ft 315 kts 359°
2026-04-30 12:56 7.36565 79.75716 11013 ft 329 kts 358°
2026-04-30 12:56 7.38874 79.75594 11614 ft 335 kts 358°
2026-04-30 12:56 7.41216 79.75460 12282 ft 339 kts 358°
2026-04-30 12:56 7.43584 79.75322 12973 ft 342 kts 358°
2026-04-30 12:57 7.45975 79.75183 13683 ft 346 kts 358°
2026-04-30 12:57 7.48389 79.75044 14273 ft 350 kts 358°
2026-04-30 12:57 7.50806 79.74909 14890 ft 354 kts 358°
2026-04-30 12:57 7.53277 79.74772 15504 ft 358 kts 358°
2026-04-30 12:58 7.55775 79.74634 16132 ft 362 kts 358°
2026-04-30 12:58 7.58301 79.74496 16748 ft 365 kts 358°
2026-04-30 12:58 7.60856 79.74356 17352 ft 369 kts 358°
2026-04-30 12:58 7.63431 79.74215 17940 ft 373 kts 358°
2026-04-30 12:59 7.66038 79.74072 18449 ft 377 kts 358°
2026-04-30 12:59 7.68670 79.73924 18927 ft 380 kts 358°
2026-04-30 12:59 7.71323 79.73776 19405 ft 384 kts 358°
2026-04-30 12:59 7.73997 79.73627 19888 ft 387 kts 358°
2026-04-30 13:00 7.76695 79.73475 20370 ft 390 kts 358°
2026-04-30 13:00 7.79413 79.73321 20850 ft 393 kts 358°
2026-04-30 13:00 7.82152 79.73168 21334 ft 396 kts 358°
2026-04-30 13:00 7.84915 79.73016 21822 ft 399 kts 358°
2026-04-30 13:01 7.87698 79.72864 22307 ft 402 kts 357°
2026-04-30 13:01 7.90507 79.72708 22784 ft 406 kts 357°
2026-04-30 13:01 7.93341 79.72548 23263 ft 409 kts 357°
2026-04-30 13:01 7.96196 79.72386 23703 ft 412 kts 357°
2026-04-30 13:02 7.99070 79.72224 24100 ft 416 kts 357°
2026-04-30 13:02 8.01969 79.72061 24505 ft 419 kts 357°
2026-04-30 13:02 8.04884 79.71897 24921 ft 421 kts 357°
2026-04-30 13:02 8.07822 79.71733 25319 ft 424 kts 357°
2026-04-30 13:03 8.10774 79.71568 25710 ft 427 kts 357°
2026-04-30 13:03 8.13751 79.71402 26102 ft 429 kts 357°
2026-04-30 13:03 8.16744 79.71237 26481 ft 432 kts 357°
2026-04-30 13:03 8.19756 79.71071 26861 ft 435 kts 357°
2026-04-30 13:04 8.22781 79.70905 27228 ft 437 kts 357°
2026-04-30 13:04 8.25823 79.70736 27580 ft 440 kts 357°
2026-04-30 13:04 8.28888 79.70566 27933 ft 442 kts 357°
2026-04-30 13:04 8.31968 79.70395 28273 ft 444 kts 357°
2026-04-30 13:05 8.35067 79.70222 28613 ft 447 kts 357°
2026-04-30 13:05 8.38178 79.70049 28946 ft 449 kts 357°
2026-04-30 13:05 8.41302 79.69875 29276 ft 452 kts 356°
2026-04-30 13:06 8.47613 79.69524 29926 ft 456 kts 356°
2026-04-30 13:06 8.50796 79.69347 30192 ft 459 kts 356°
2026-04-30 13:06 8.53987 79.69170 30445 ft 461 kts 356°
2026-04-30 13:06 8.57197 79.68989 30711 ft 463 kts 356°
2026-04-30 13:07 8.60417 79.68805 30972 ft 465 kts 356°
2026-04-30 13:07 8.63647 79.68622 31240 ft 466 kts 356°
2026-04-30 13:07 8.66896 79.68439 31508 ft 468 kts 356°
2026-04-30 13:07 8.70142 79.68247 31877 ft 466 kts 354°
2026-04-30 13:08 8.73339 79.67771 32250 ft 464 kts 346°
2026-04-30 13:08 8.76425 79.66835 32628 ft 462 kts 338°
2026-04-30 13:08 8.79403 79.65627 33010 ft 460 kts 335°
2026-04-30 13:08 8.82330 79.64319 33355 ft 459 kts 334°
2026-04-30 13:09 8.85223 79.62963 33735 ft 457 kts 333°
2026-04-30 13:09 8.88094 79.61592 34089 ft 455 kts 333°
2026-04-30 13:09 8.90942 79.60231 34469 ft 451 kts 333°
2026-04-30 13:09 8.93770 79.58884 34875 ft 447 kts 333°
2026-04-30 13:10 8.96571 79.57558 35278 ft 443 kts 333°
2026-04-30 13:10 8.99352 79.56247 35665 ft 439 kts 333°
2026-04-30 13:10 9.02117 79.54948 36016 ft 436 kts 333°
2026-04-30 13:10 9.04861 79.53662 36353 ft 433 kts 333°
2026-04-30 13:11 9.07590 79.52383 36660 ft 432 kts 333°
2026-04-30 13:11 9.10310 79.51109 36924 ft 430 kts 333°
2026-04-30 13:11 9.13023 79.49837 37198 ft 429 kts 333°
2026-04-30 13:11 9.15725 79.48570 37443 ft 428 kts 333°
2026-04-30 13:12 9.18425 79.47303 37686 ft 427 kts 333°
2026-04-30 13:12 9.21120 79.46038 37843 ft 427 kts 334°
2026-04-30 13:12 9.23807 79.44776 37856 ft 425 kts 334°
2026-04-30 13:13 9.31820 79.41015 37856 ft 422 kts 334°
2026-04-30 13:14 9.39772 79.37277 37853 ft 422 kts 334°
2026-04-30 13:14 9.47799 79.33499 37854 ft 422 kts 334°
2026-04-30 13:15 9.55785 79.29742 37851 ft 422 kts 334°
2026-04-30 13:16 9.61105 79.27238 37845 ft 422 kts 334°
2026-04-30 13:16 9.66431 79.24730 37838 ft 422 kts 334°
2026-04-30 13:17 9.74420 79.20966 37838 ft 422 kts 334°
2026-04-30 13:18 9.82382 79.17213 37838 ft 423 kts 334°
2026-04-30 13:18 9.90378 79.13441 37833 ft 422 kts 334°
2026-04-30 13:19 9.95710 79.10926 37833 ft 422 kts 334°
2026-04-30 13:19 10.01036 79.08413 37831 ft 422 kts 334°
2026-04-30 13:20 10.06367 79.05896 37826 ft 422 kts 334°
2026-04-30 13:20 10.11691 79.03382 37825 ft 422 kts 334°
2026-04-30 13:21 10.17015 79.00866 37821 ft 422 kts 334°
2026-04-30 13:22 10.24986 78.97098 37820 ft 421 kts 334°
2026-04-30 13:22 10.32945 78.93333 37813 ft 420 kts 334°
2026-04-30 13:23 10.40896 78.89571 37812 ft 420 kts 333°
2026-04-30 13:24 10.51465 78.84565 37807 ft 420 kts 333°
2026-04-30 13:25 10.62069 78.79539 37799 ft 420 kts 334°
2026-04-30 13:26 10.74462 78.73662 37799 ft 420 kts 334°
2026-04-30 13:28 10.87930 78.67935 37803 ft 421 kts 337°
2026-04-30 13:28 10.96109 78.64612 37799 ft 422 kts 337°
2026-04-30 13:29 11.07016 78.60126 37795 ft 423 kts 337°
2026-04-30 13:31 11.20666 78.54504 37802 ft 424 kts 337°
2026-04-30 13:32 11.34335 78.48870 37813 ft 424 kts 337°
2026-04-30 13:33 11.45287 78.44351 37816 ft 425 kts 337°
2026-04-30 13:34 11.53506 78.40957 37824 ft 425 kts 337°
2026-04-30 13:35 11.64478 78.36424 37824 ft 425 kts 337°
2026-04-30 13:36 11.75434 78.31895 37827 ft 425 kts 337°
2026-04-30 13:36 11.83690 78.28479 38450 ft 425 kts 337°
2026-04-30 13:37 11.86418 78.27337 38678 ft 424 kts 336°
2026-04-30 13:37 11.91854 78.25017 39004 ft 423 kts 336°
2026-04-30 13:38 11.97277 78.22685 39279 ft 423 kts 336°
2026-04-30 13:38 11.99995 78.21517 39432 ft 424 kts 336°
2026-04-30 13:38 12.05395 78.19200 39639 ft 426 kts 336°
2026-04-30 13:39 12.10880 78.16848 39649 ft 428 kts 336°
2026-04-30 13:40 12.19113 78.13317 39659 ft 428 kts 336°
2026-04-30 13:40 12.24615 78.10955 39670 ft 428 kts 336°
2026-04-30 13:41 12.30118 78.08592 39679 ft 429 kts 336°
2026-04-30 13:41 12.35620 78.06227 39689 ft 429 kts 336°
2026-04-30 13:42 12.41128 78.03861 39706 ft 429 kts 337°
2026-04-30 13:42 12.43887 78.02677 39825 ft 430 kts 337°
2026-04-30 13:42 12.49410 78.00305 39914 ft 431 kts 337°
2026-04-30 13:43 12.54899 77.97945 39922 ft 430 kts 337°
2026-04-30 13:43 12.60409 77.95574 40001 ft 430 kts 337°
2026-04-30 13:44 12.65935 77.93191 40045 ft 430 kts 336°
2026-04-30 13:44 12.71439 77.90814 40093 ft 430 kts 336°
2026-04-30 13:45 12.79741 77.87232 40262 ft 430 kts 337°
2026-04-30 13:45 12.82493 77.86045 40438 ft 429 kts 337°
2026-04-30 13:46 12.85244 77.84858 40484 ft 429 kts 337°
2026-04-30 13:46 12.90742 77.82487 40794 ft 427 kts 337°
2026-04-30 13:46 12.93475 77.81308 40963 ft 426 kts 337°
2026-04-30 13:47 12.96210 77.80127 40995 ft 428 kts 337°
2026-04-30 13:47 13.01717 77.77750 40996 ft 429 kts 337°
2026-04-30 13:48 13.07219 77.75372 41156 ft 429 kts 337°
2026-04-30 13:48 13.12723 77.72991 41199 ft 429 kts 337°
2026-04-30 13:48 13.15477 77.71801 41332 ft 429 kts 337°
2026-04-30 13:49 13.18222 77.70614 41452 ft 429 kts 337°
2026-04-30 13:49 13.23724 77.68231 41465 ft 429 kts 337°
2026-04-30 13:50 13.29211 77.65848 41470 ft 428 kts 337°
2026-04-30 13:50 13.37395 77.62292 41590 ft 428 kts 337°
2026-04-30 13:51 13.42882 77.59907 41750 ft 429 kts 338°
2026-04-30 13:51 13.48394 77.57511 41773 ft 431 kts 338°
2026-04-30 13:52 13.53908 77.55112 41763 ft 430 kts 338°
2026-04-30 13:52 13.59418 77.52716 41832 ft 430 kts 338°
2026-04-30 13:53 13.64936 77.50314 41954 ft 432 kts 338°
2026-04-30 13:53 13.70474 77.47903 41940 ft 432 kts 338°
2026-04-30 13:54 13.75995 77.45496 41928 ft 430 kts 338°
2026-04-30 13:54 13.81503 77.43094 41923 ft 430 kts 338°
2026-04-30 13:55 13.87006 77.40691 41923 ft 429 kts 337°
2026-04-30 13:55 13.92499 77.38289 41914 ft 429 kts 337°
2026-04-30 13:56 13.97989 77.35887 41914 ft 428 kts 337°
2026-04-30 13:56 14.03473 77.33490 41906 ft 428 kts 337°
2026-04-30 13:57 14.08912 77.31111 41902 ft 427 kts 337°
2026-04-30 13:57 14.14381 77.28718 41894 ft 427 kts 337°
2026-04-30 13:58 14.22574 77.25131 41887 ft 426 kts 337°
2026-04-30 13:59 14.28033 77.22740 41887 ft 426 kts 337°
2026-04-30 13:59 14.33487 77.20349 41881 ft 426 kts 337°
2026-04-30 14:00 14.38936 77.17962 41873 ft 425 kts 338°
2026-04-30 14:00 14.47109 77.14386 41874 ft 425 kts 337°
2026-04-30 14:01 14.52551 77.11998 41870 ft 425 kts 337°
2026-04-30 14:01 14.57990 77.09609 41856 ft 425 kts 337°
2026-04-30 14:02 14.63495 77.07406 41862 ft 424 kts 340°
2026-04-30 14:02 14.69062 77.05392 41856 ft 424 kts 341°
2026-04-30 14:03 14.74638 77.03388 41995 ft 424 kts 341°
2026-04-30 14:03 14.80213 77.01359 42129 ft 425 kts 341°
2026-04-30 14:04 14.85800 76.99308 42261 ft 426 kts 341°
2026-04-30 14:04 14.91397 76.97249 42348 ft 428 kts 341°
2026-04-30 14:05 14.97023 76.95178 42345 ft 429 kts 340°
2026-04-30 14:05 15.02637 76.93111 42340 ft 428 kts 341°
2026-04-30 14:06 15.11052 76.90013 42341 ft 428 kts 340°
2026-04-30 14:07 15.16454 76.87435 42394 ft 429 kts 327°
2026-04-30 14:07 15.18842 76.85572 42442 ft 431 kts 320°
2026-04-30 14:08 15.25453 76.79209 42611 ft 433 kts 316°
2026-04-30 14:08 15.31921 76.72659 42765 ft 435 kts 316°
2026-04-30 14:09 15.36253 76.68307 42833 ft 436 kts 317°
2026-04-30 14:10 15.42836 76.61720 42830 ft 436 kts 317°
2026-04-30 14:10 15.47168 76.57386 42835 ft 435 kts 317°
2026-04-30 14:11 15.51522 76.53027 42839 ft 435 kts 317°
2026-04-30 14:11 15.55874 76.48667 42845 ft 435 kts 317°
2026-04-30 14:12 15.60225 76.44304 42849 ft 435 kts 317°
2026-04-30 14:12 15.64572 76.39943 42853 ft 435 kts 317°
2026-04-30 14:13 15.68205 76.36352 42854 ft 434 kts 318°
2026-04-30 14:13 15.72632 76.32085 42856 ft 434 kts 318°
2026-04-30 14:14 15.77059 76.27816 42859 ft 435 kts 318°
2026-04-30 14:14 15.81486 76.23540 42863 ft 435 kts 318°
2026-04-30 14:15 15.85913 76.19262 42861 ft 435 kts 318°
2026-04-30 14:15 15.90341 76.14978 42861 ft 435 kts 318°
2026-04-30 14:16 15.94771 76.10690 42861 ft 435 kts 317°
2026-04-30 14:16 15.99202 76.06398 42862 ft 435 kts 318°
2026-04-30 14:17 16.03630 76.02107 42864 ft 435 kts 317°
2026-04-30 14:17 16.08058 75.97812 42866 ft 435 kts 317°
2026-04-30 14:18 16.12485 75.93516 42864 ft 435 kts 318°
2026-04-30 14:18 16.19121 75.87072 42863 ft 435 kts 318°
2026-04-30 14:19 16.25746 75.80631 42865 ft 434 kts 318°
2026-04-30 14:20 16.30160 75.76336 42866 ft 434 kts 318°
2026-04-30 14:20 16.36768 75.69901 42865 ft 433 kts 318°
2026-04-30 14:21 16.41166 75.65614 42867 ft 433 kts 318°
2026-04-30 14:22 16.47764 75.59180 42869 ft 433 kts 317°
2026-04-30 14:22 16.54364 75.52735 42868 ft 434 kts 317°
2026-04-30 14:23 16.62813 75.43758 42877 ft 435 kts 309°
2026-04-30 14:24 16.68440 75.36323 42885 ft 435 kts 309°
2026-04-30 14:25 16.75933 75.26408 42890 ft 435 kts 309°
2026-04-30 14:26 16.81521 75.19008 42892 ft 435 kts 309°
2026-04-30 14:27 16.87157 75.11543 42903 ft 434 kts 309°
2026-04-30 14:27 16.90869 75.06621 42903 ft 434 kts 309°
2026-04-30 14:28 16.96467 74.99191 42911 ft 434 kts 309°
2026-04-30 14:28 17.00222 74.94203 42914 ft 434 kts 309°
2026-04-30 14:29 17.07650 74.84322 42917 ft 434 kts 309°
2026-04-30 14:31 17.16958 74.71923 42912 ft 433 kts 309°
2026-04-30 14:31 17.22533 74.64486 42914 ft 433 kts 309°
2026-04-30 14:32 17.28107 74.57043 42917 ft 433 kts 309°
2026-04-30 14:33 17.31823 74.52077 42918 ft 433 kts 309°
2026-04-30 14:33 17.37398 74.44617 42916 ft 434 kts 309°
2026-04-30 14:34 17.41112 74.39642 42919 ft 434 kts 309°
2026-04-30 14:34 17.44827 74.34664 42889 ft 433 kts 309°
2026-04-30 14:35 17.48517 74.29715 41984 ft 428 kts 309°
2026-04-30 14:35 17.50338 74.27271 41574 ft 424 kts 309°
2026-04-30 14:35 17.52145 74.24845 41159 ft 420 kts 309°
2026-04-30 14:36 17.53937 74.22437 40759 ft 417 kts 309°
2026-04-30 14:36 17.55716 74.20046 40193 ft 418 kts 308°
2026-04-30 14:36 17.57520 74.17623 39380 ft 425 kts 308°
2026-04-30 14:36 17.59379 74.15123 38554 ft 433 kts 308°
2026-04-30 14:37 17.61246 74.12611 37635 ft 439 kts 308°
2026-04-30 14:37 17.63133 74.10070 36821 ft 443 kts 308°
2026-04-30 14:37 17.65025 74.07521 35916 ft 442 kts 308°
2026-04-30 14:37 17.66916 74.04974 34906 ft 443 kts 309°
2026-04-30 14:38 17.68811 74.02419 33878 ft 444 kts 309°
2026-04-30 14:38 17.70700 73.99868 32771 ft 439 kts 309°
2026-04-30 14:38 17.72543 73.97374 32144 ft 426 kts 309°
2026-04-30 14:38 17.74335 73.94959 31668 ft 413 kts 309°
2026-04-30 14:39 17.76089 73.92598 30937 ft 408 kts 309°
2026-04-30 14:39 17.77826 73.90257 30181 ft 405 kts 309°
2026-04-30 14:39 17.79543 73.87942 29792 ft 402 kts 309°
2026-04-30 14:40 17.82970 73.83318 29223 ft 396 kts 309°
2026-04-30 14:40 17.84651 73.81047 28761 ft 392 kts 309°
2026-04-30 14:40 17.86318 73.78793 28249 ft 389 kts 309°
2026-04-30 14:40 17.87971 73.76557 27739 ft 386 kts 309°
2026-04-30 14:41 17.89611 73.74338 27233 ft 384 kts 309°
2026-04-30 14:41 17.91243 73.72129 26726 ft 381 kts 310°
2026-04-30 14:41 17.92862 73.69938 26234 ft 379 kts 310°
2026-04-30 14:41 17.94472 73.67758 25735 ft 377 kts 310°
2026-04-30 14:42 17.96073 73.65590 25241 ft 375 kts 310°
2026-04-30 14:42 17.97667 73.63431 24744 ft 373 kts 310°
2026-04-30 14:42 17.99250 73.61285 24242 ft 371 kts 310°
2026-04-30 14:42 18.00825 73.59150 23740 ft 369 kts 310°
2026-04-30 14:43 18.02384 73.57036 23180 ft 361 kts 310°
2026-04-30 14:43 18.03896 73.54983 22617 ft 349 kts 310°
2026-04-30 14:43 18.05371 73.52983 21897 ft 344 kts 310°
2026-04-30 14:43 18.06821 73.51018 21475 ft 339 kts 310°
2026-04-30 14:44 18.08261 73.49065 21225 ft 335 kts 310°
2026-04-30 14:44 18.09677 73.47142 20826 ft 331 kts 309°
2026-04-30 14:44 18.11086 73.45231 20371 ft 330 kts 309°
2026-04-30 14:44 18.12488 73.43327 20001 ft 327 kts 309°
2026-04-30 14:45 18.13864 73.41458 19680 ft 322 kts 309°
2026-04-30 14:45 18.15271 73.39620 19201 ft 323 kts 314°
2026-04-30 14:45 18.17011 73.38153 18792 ft 321 kts 330°
2026-04-30 14:45 18.19009 73.37122 18386 ft 320 kts 336°
2026-04-30 14:46 18.21062 73.36202 17928 ft 321 kts 337°
2026-04-30 14:46 18.23117 73.35300 17466 ft 320 kts 337°
2026-04-30 14:46 18.25161 73.34400 17034 ft 318 kts 336°
2026-04-30 14:46 18.26510 73.33803 16751 ft 317 kts 336°
2026-04-30 14:47 18.29213 73.32601 16194 ft 314 kts 336°
2026-04-30 14:47 18.31219 73.31707 15777 ft 313 kts 336°
2026-04-30 14:47 18.33217 73.30815 15337 ft 311 kts 336°
2026-04-30 14:47 18.35210 73.29924 14869 ft 311 kts 336°
2026-04-30 14:48 18.37198 73.29035 14415 ft 310 kts 335°
2026-04-30 14:48 18.39181 73.28148 13974 ft 309 kts 335°
2026-04-30 14:48 18.41153 73.27265 13532 ft 307 kts 335°
2026-04-30 14:48 18.43116 73.26386 13083 ft 305 kts 335°
2026-04-30 14:49 18.45058 73.25517 12653 ft 302 kts 335°
2026-04-30 14:49 18.46989 73.24652 12212 ft 300 kts 335°
2026-04-30 14:49 18.48902 73.23795 11767 ft 298 kts 334°
2026-04-30 14:49 18.50796 73.22947 11350 ft 294 kts 334°
2026-04-30 14:50 18.54537 73.21269 10513 ft 291 kts 334°
2026-04-30 14:50 18.56388 73.20438 10103 ft 288 kts 333°
2026-04-30 14:51 18.60016 73.18812 9499 ft 273 kts 333°
2026-04-30 14:51 18.61733 73.18043 9293 ft 264 kts 333°
2026-04-30 14:51 18.65064 73.16547 8660 ft 257 kts 333°
2026-04-30 14:52 18.66755 73.15963 8431 ft 258 kts 345°
2026-04-30 14:52 18.70362 73.15721 7961 ft 261 kts 354°
2026-04-30 14:52 18.72177 73.15685 7712 ft 260 kts 354°
2026-04-30 14:53 18.75197 73.15622 7187 ft 259 kts 354°
2026-04-30 14:53 18.77569 73.15565 6754 ft 256 kts 353°
2026-04-30 14:54 18.80547 73.15490 6079 ft 258 kts 354°
2026-04-30 14:54 18.84160 73.15392 5152 ft 261 kts 355°
2026-04-30 14:55 18.87680 73.15305 4995 ft 246 kts 355°
2026-04-30 14:55 18.89451 73.15291 4897 ft 260 kts
2026-04-30 14:55 18.92480 73.17220 4072 ft 270 kts 61°
2026-04-30 14:56 18.93436 73.20909 4007 ft 251 kts 57°
2026-04-30 14:56 18.96017 73.22476 4009 ft 205 kts 349°
2026-04-30 14:57 18.97225 73.21930 4029 ft 181 kts 320°
2026-04-30 14:57 18.98832 73.20182 3983 ft 149 kts 310°
2026-04-30 14:58 19.00147 73.18625 4000 ft 139 kts 309°
2026-04-30 14:58 19.00777 73.17887 4040 ft 133 kts 310°
2026-04-30 14:58 19.02017 73.16432 3784 ft 137 kts 310°
2026-04-30 14:59 19.03329 73.14884 2982 ft 138 kts 309°
2026-04-30 15:00 19.05180 73.12749 2895 ft 131 kts 312°
2026-04-30 15:00 19.06414 73.11345 2901 ft 130 kts 307°
2026-04-30 15:01 19.07458 73.09778 2895 ft 131 kts 300°
2026-04-30 15:01 19.07936 73.08961 2897 ft 131 kts 299°
2026-04-30 15:01 19.08806 73.07281 2893 ft 130 kts 291°
2026-04-30 15:02 19.09035 73.06353 2886 ft 131 kts 280°
2026-04-30 15:02 19.09110 73.05393 2895 ft 131 kts 273°
2026-04-30 15:03 19.09087 73.02503 2698 ft 130 kts 270°
2026-04-30 15:03 19.09062 73.00592 2351 ft 129 kts 269°
2026-04-30 15:04 19.09036 72.98704 2016 ft 129 kts 268°
2026-04-30 15:04 19.08997 72.95880 1511 ft 127 kts 266°
2026-04-30 15:05 19.08958 72.93086 1034 ft 126 kts 265°
2026-04-30 15:06 19.08933 72.91233 737 ft 126 kts 268°
2026-04-30 15:06 19.08909 72.89401 419 ft 125 kts 267°
2026-04-30 15:07 19.08884 72.87563 60 ft 120 kts 268°
2026-04-30 15:07 19.08864 72.86277 34 ft 49 kts 270°
2026-04-30 15:08 19.08801 72.85878 32 ft 19 kts 240°
2026-04-30 15:08 19.08750 72.85807 32 ft 2 kts 226°
2026-04-30 15:09 19.08725 72.85781 32 ft 4 kts 208°
2026-04-30 15:09 19.08709 72.85870 33 ft 9 kts 66°
2026-04-30 15:10 19.08765 72.85935 33 ft 4 kts 312°
2026-04-30 15:11 19.08928 72.85546 32 ft 17 kts 296°
2026-04-30 15:11 19.09045 72.85403 32 ft 12 kts
2026-04-30 15:12 19.09117 72.85489 34 ft 8 kts 357°